SCP
0 0 0 0 0 0 0 0 0 0 -0 -0 -0 0 0 -0 -0 -0 -0 -0 -0 -0 -0 -0 -0 -0 -0 -0 -0 -0 -0 0 0 0 0 0 0 0 0 0 0 0 0 0
0 0 0 0 0 0 0 0 0 -0 -0 0 -0 0 0 -0 -0 -0 -0 -0 -0 -0 -0 -0 -0 -0 -0 -0 -0 -0 -0 -0 -0 -0 -0 -0 0 0 -0 0 0 0 0 0
0 0 0 0 0 0 0 -0 -0 -0 0 -0 0 0 0 -0 -0 -0 -0 -0 -0 -0 -0 -0 -0 -0 -0 -0 -0 -0 -0 -0 -0 -0 -0 -0 -0 -0 -0 -0 -0 -0 -0 0
0 0 0 0 0 0 0 0 0 -0 -0 -0 0 0 -0 0 -0 -0 -0 -0 -0 -0 -0 -0 -0 -0 -0 -0 -0 -0 -0 -0 0 -0 -0 0 -0 -0 -0 -0 -0 -0 -0 -0
0 0 0 0 0 0 0 -0 0 0 -0 0 0 0 0 0 -0 -0 -0 -0 -0 -0 -0 -0 -0 -0 -0 -0 -0 -0 -0 -0 -0 -0 -0 -0 0 -0 -0 -0 -0 -0 -0 -0
0 0 0 0 0 0 0 0 0 -0 -0 0 0 0 -0 0 0 -0 -0 0 -0 -0 -0 -0 -0 -0 -0 -0 -0 -0 -0 -0 -0 -0 -0 -0 -0 -0 0 -0 0 0 0 0
0 0 0 0 0 0 0 0 0 -0 -0 -0 0 -0 0 0 0 -0 0 0 -0 0 -0 -0 -0 -0 -0 -0 -0 -0 -0 -0 -0 -0 -0 -0 -0 0 0 0 0 0 0 0
0 0 0 0 0 0 0 1 0 0 0 0 -0 -0 0 0 0 0 -0 -0 -0 0 0 -0 -0 -0 -0 -0 -0 -0 -0 -0 -0 -0 -0 -0 0 0 0 0 0 0 0 0
0 0 0 0 0 0 0 0 0 0 -0 0 -0 0 0 0 0 0 0 0 0 0 0 0 -0 -0 -0 -0 -0 0 0 -0 -0 -0 -0 -0 -0 0 0 0 0 0 0 0
0 0 0 0 0 0 0 0 0 0 0 0 -0 0 0 0 0 0 0 0 0 0 0 0 -0 -0 -0 -0 -0 0 0 0 0 -0 0 -0 0 -0 -0 -0 -0 -0 0 0
0 0 0 0 0 0 0 0 0 0 0 0 0 0 0 0 0 0 0 0 0 0 0 0 0 0 0 0 -0 0 0 0 0 0 0 0 0 0 0 0 0 0 0 0
0 0 0 0 0 0 0 0 0 0 0 0 0 0 0 0 0 0 0 0 0 0 0 0 0 0 0 0 0 0 0 0 0 0 0 0 0 0 0 0 0 -0 0 0
0 0 0 0 0 0 0 0 0 0 0 0 0 0 0 0 0 0 0 0 0 0 0 0 0 0 0 0 0 0 0 0 0 0 0 0 0 0 0 0 0 0 0 0
0 0 0 0 0 0 0 0 0 0 0 0 0 0 0 0 0 0 0 0 0 0 0 0 0 0 0 0 0 0 0 0 0 0 0 0 0 0 0 0 0 0 0 0
0 0 0 0 0 1 0 0 0 0 0 0 0 0 0 0 0 0 0 0 0 0 0 0 0 0 0 0 0 0 0 0 0 0 0 0 0 0 0 0 0 0 0 0
0 0 0 0 0 0 0 0 0 0 0 -0 -0 0 0 0 0 0 1 0 0 0 0 0 0 0 0 0 0 0 0 0 0 0 0 0 0 0 0 0 0 0 0 0
0 0 0 0 0 0 0 0 0 0 0 0 0 0 0 0 0 0 0 1 0 0 0 0 0 0 0 0 0 0 0 0 0 0 0 0 0 0 0 0 0 0 0 0
-0 0 0 0 1 0 0 0 0 0 0 0 1 1 0 0 0 0 0 1 1 1 1 1 0 0 0 0 0 0 0 0 0 0 0 0 0 0 0 0 0 0 0 0
0 0 0 0 0 0 0 0 0 0 1 0 0 1 1 1 0 1 0 0 1 1 1 0 0 0 0 0 0 0 0 0 0 0 0 0 0 0 0 0 0 0 0 0
0 0 -0 -0 0 0 0 0 1 1 1 1 1 1 1 1 0 0 0 0 0 0 0 0 0 0 0 0 0 0 0 0 0 0 0 0 0 0 0 0 0 0 0 0
0 -0 -0 -0 0 0 0 1 1 2 1 1 1 1 1 0 0 1 1 0 0 0 0 0 0 0 0 0 0 0 0 0 0 0 0 0 0 0 0 0 0 0 0 0
0 0 0 0 0 0 0 1 1 1 0 0 0 0 0 0 0 0 0 0 0 0 0 0 0 0 0 0 0 0 0 0 0 0 0 0 0 0 0 0 0 0 0 0
0 0 0 0 0 0 0 0 0 0 0 0 0 0 0 0 0 0 0 0 0 0 0 0 0 0 0 0 0 0 0 0 0 0 0 0 0 0 0 0 0 0 0 0
0 0 0 0 0 0 0 0 0 0 0 0 0 0 0 0 0 0 0 0 0 0 0 0 0 0 0 0 0 0 0 0 0 0 0 0 0 0 0 0 0 0 0 0
0 0 0 0 0 0 0 0 0 0 0 0 0 0 0 0 0 0 0 0 0 0 0 0 0 0 0 0 0 0 0 0 0 0 0 0 0 0 0 0 0 0 0 0
0 0 0 0 0 0 0 0 0 0 0 0 0 0 0 0 0 0 0 0 0 0 0 0 0 0 0 0 0 0 0 0 0 0 0 0 0 0 0 0 0 0 0 0
0 0 0 0 0 0 0 0 0 0 0 0 0 0 0 0 0 0 0 0 0 0 0 0 0 0 0 0 0 0 0 0 0 0 0 0 0 0 0 0 0 0 0 0
Wind_Speed_500mb
50 42 49 42 45 48 49 46 38 33 34 29 20 18 18 25 33 41 54 55 53 52 49 47 43 39 34 31 31 28 25 23 22 24 23 22 22 23 27 26 30 32 36 36
43 52 41 44 49 47 50 50 44 37 34 22 26 14 18 29 39 47 58 64 57 52 50 50 49 46 40 35 34 31 28 25 24 27 26 25 24 25 27 27 28 28 28 29
43 41 42 44 52 51 47 50 44 44 38 30 21 24 29 32 40 48 53 62 62 60 55 52 52 49 46 40 36 34 31 28 26 28 30 28 26 26 25 28 29 30 30 28
27 32 38 38 44 50 47 41 43 41 35 35 31 35 39 31 41 41 48 55 59 57 54 54 53 50 46 43 41 37 33 31 28 28 32 32 30 28 30 29 28 27 23 23
23 33 15 24 25 44 46 47 39 42 40 41 32 27 28 33 39 40 49 54 62 63 59 55 56 55 52 48 45 42 38 35 32 30 34 36 35 32 34 34 31 27 20 19
24 36 52 23 29 32 34 35 39 44 38 37 31 21 26 45 44 40 37 44 52 58 61 59 58 58 57 54 50 48 43 39 36 33 35 38 38 38 39 34 30 24 22 23
26 29 23 9 37 30 35 15 31 47 49 45 28 41 21 20 44 47 40 42 46 56 67 74 68 64 63 59 57 50 45 43 40 37 37 37 38 40 42 39 29 30 26 28
28 26 25 19 25 36 18 15 17 31 37 40 52 48 24 18 31 47 41 38 47 54 60 64 72 70 65 65 58 52 49 47 45 41 38 39 41 42 42 40 36 37 34 33
24 21 14 30 19 36 21 27 23 20 29 35 36 36 27 26 30 35 30 31 40 49 52 57 69 73 70 67 61 57 54 52 50 46 43 41 45 47 45 47 37 37 37 33
12 22 8 17 20 17 31 26 17 20 20 25 28 24 28 30 32 39 33 28 31 43 53 57 65 80 85 65 63 63 59 55 53 53 50 46 44 46 41 44 41 40 39 37
23 27 23 31 41 25 26 25 18 19 23 24 23 22 24 27 29 27 29 28 32 40 50 57 59 66 69 70 68 68 67 61 58 54 59 54 53 49 49 49 47 43 41 39
23 19 35 35 32 50 31 31 29 24 23 24 23 23 22 19 19 21 22 26 32 37 43 50 52 58 64 73 75 81 80 70 65 60 59 54 53 50 57 49 54 51 47 40
26 2 16 28 31 35 47 40 30 32 30 29 23 20 20 17 17 20 24 26 33 38 39 41 48 53 61 72 74 81 88 78 70 67 61 62 58 57 52 63 55 55 54 52
19 15 33 41 30 30 40 49 41 38 32 28 26 24 24 26 26 24 27 27 28 33 36 42 46 50 56 65 75 81 90 83 80 76 68 64 63 59 55 53 65 67 64 61
38 35 34 45 43 34 33 32 36 37 35 33 26 26 28 31 32 31 24 23 27 30 30 39 44 46 51 60 70 75 80 80 86 71 75 69 63 60 58 55 52 50 57 64
47 46 43 47 52 45 38 40 45 39 37 29 26 31 33 34 32 32 25 17 19 27 32 34 38 39 46 55 61 63 73 80 76 75 62 66 63 61 59 57 53 52 48 43
39 47 48 54 53 50 45 43 49 49 45 39 33 28 25 27 33 30 25 22 24 22 23 28 33 37 41 51 57 59 60 66 87 79 70 65 61 60 55 55 54 51 48 49
40 44 44 43 38 49 52 48 42 39 48 42 37 31 27 25 22 21 23 22 21 24 30 25 18 31 42 46 50 49 50 55 55 72 72 66 63 59 55 52 50 49 56 64
32 36 38 40 42 42 42 44 43 49 47 41 34 26 22 20 19 22 27 25 26 23 27 34 32 22 25 37 47 45 45 49 54 56 73 70 66 62 59 55 50 50 56 52
22 28 26 26 25 28 35 33 40 45 41 37 32 27 22 19 18 16 16 19 26 32 36 38 39 36 30 30 36 41 45 45 46 42 54 61 60 66 55 58 49 44 47 50
23 33 36 41 40 35 29 26 26 32 40 43 41 32 29 23 19 16 9 4 9 15 22 32 35 35 35 36 42 39 43 44 46 44 52 55 54 57 55 54 52 54 52 52
35 46 53 59 59 57 49 48 35 9 29 45 49 45 40 34 27 22 16 14 14 13 9 5 14 19 23 35 31 38 44 44 42 48 52 61 68 67 60 61 63 61 59 69
48 57 58 55 60 62 63 55 19 6 14 38 40 32 29 26 24 19 17 20 21 23 19 12 12 16 26 18 24 28 36 41 47 49 58 68 70 74 74 82 75 81 82 80
55 58 55 45 52 45 40 24 14 17 16 27 26 26 18 15 19 20 15 12 9 6 5 4 6 7 15 17 19 23 27 37 42 48 54 57 69 69 74 87 97 94 89 78
51 51 45 37 33 27 20 15 17 12 15 19 20 15 14 21 18 21 15 11 8 3 0 6 9 8 10 16 21 23 29 37 43 48 54 57 62 68 88 90 86 82 74 71
46 42 41 39 33 24 20 18 20 16 11 7 10 13 15 20 20 14 12 11 8 5 4 7 8 10 13 18 24 28 32 41 49 47 54 70 84 86 82 79 79 81 75 82
46 43 42 40 37 36 33 28 22 19 15 12 9 7 8 15 12 10 11 14 16 15 15 14 13 11 9 17 22 31 32 38 41 48 50 58 62 67 71 76 77 79 79 73
Wind_Direction_500mb
224 215 201 208 214 214 218 219 231 232 235 236 239 210 211 190 181 178 179 183 185 184 183 182 181 184 184 180 175 168 159 155 158 156 145 142 133 128 121 118 114 111 111 109
213 221 210 215 218 212 217 222 228 238 250 217 240 242 187 185 183 187 186 190 188 185 184 183 182 182 183 183 180 173 167 162 161 164 158 156 151 143 136 128 125 125 121 117
219 215 221 226 216 214 219 224 226 229 232 243 224 230 206 193 193 192 194 191 190 188 185 186 185 183 183 182 181 180 174 171 168 169 168 164 161 157 149 145 136 131 127 127
201 198 209 242 215 220 222 224 224 237 233 231 225 227 226 200 196 195 194 197 194 191 187 186 184 185 185 182 182 182 181 179 175 172 175 173 170 169 168 161 156 152 143 140
204 201 215 191 205 209 214 230 219 221 222 232 226 237 237 217 206 197 197 197 194 194 188 184 184 184 184 186 185 183 186 185 181 177 177 180 180 181 180 178 176 176 173 175
207 193 217 175 170 198 210 226 210 217 219 226 220 216 230 198 204 202 196 195 192 188 186 185 186 185 185 189 189 188 187 186 184 181 180 182 185 189 193 191 187 184 189 189
187 213 223 276 171 169 191 199 192 211 218 222 212 224 242 199 200 200 193 192 192 184 187 193 186 186 188 191 194 191 186 184 184 184 181 181 183 189 192 190 192 187 191 189
199 203 210 160 150 192 187 108 182 203 213 211 215 223 211 203 198 192 195 200 195 191 188 188 188 188 190 196 194 191 188 185 185 185 179 181 182 184 187 188 189 187 183 178
203 203 96 168 192 201 189 213 214 211 195 200 213 217 200 196 183 188 190 196 195 197 192 189 190 194 195 196 190 190 190 188 186 187 183 185 182 182 181 183 183 181 181 180
247 215 194 219 237 219 214 224 214 203 195 202 206 208 206 201 197 200 195 198 198 196 197 195 194 197 207 191 189 189 192 192 189 187 188 188 187 189 185 188 185 185 185 185
252 262 264 229 249 245 236 229 215 204 198 195 201 205 192 185 192 196 198 211 213 204 201 200 199 202 198 195 190 191 192 193 193 192 193 194 192 193 193 198 193 190 191 190
234 244 242 235 235 244 233 231 223 215 197 197 192 190 190 183 185 191 203 211 213 210 205 200 202 203 199 196 195 193 194 195 197 195 197 197 197 199 201 199 204 197 197 194
266 329 297 267 273 263 251 232 221 211 204 191 189 199 206 203 207 207 206 211 213 216 210 204 200 200 200 196 199 200 203 199 200 198 202 199 201 201 204 206 209 209 212 211
236 293 273 258 252 248 236 235 238 223 212 204 213 217 220 223 212 211 214 212 216 219 216 211 205 203 200 199 199 205 208 207 202 204 204 205 206 206 205 206 211 213 215 218
245 248 262 275 279 270 254 237 212 208 212 216 215 219 220 218 212 203 198 202 212 214 217 214 211 208 202 202 203 205 208 207 208 207 206 209 207 208 208 208 209 211 219 223
247 247 244 257 266 256 243 227 217 219 219 212 214 218 218 219 212 201 203 209 204 209 210 214 214 212 204 205 206 208 210 209 212 209 211 210 210 211 210 210 209 209 209 218
248 243 245 250 251 248 237 226 223 229 229 212 198 193 197 208 204 204 212 215 211 213 210 217 219 211 205 205 205 207 210 212 210 210 211 211 210 214 213 212 210 210 213 213
246 241 245 251 252 241 239 234 229 225 208 186 183 189 190 202 200 202 208 216 221 219 220 216 222 204 201 200 199 202 206 207 213 212 212 211 211 212 213 210 210 206 202 212
229 233 239 241 244 238 234 225 216 202 184 170 169 176 184 192 211 219 231 231 227 224 235 224 217 217 206 210 210 204 204 202 204 205 208 208 206 206 213 213 203 195 201 200
216 214 211 207 204 209 200 192 181 177 158 151 145 145 147 162 190 205 214 212 216 216 239 228 211 211 213 213 215 202 205 201 203 199 199 205 201 197 203 196 186 179 169 164
125 138 137 123 121 124 135 150 168 149 139 136 132 134 127 127 124 110 101 172 198 205 228 224 208 214 208 217 196 192 196 198 197 194 190 187 187 179 181 178 171 169 163 156
114 112 102 102 99 98 105 104 94 129 136 129 120 114 109 103 99 98 95 92 87 112 120 134 202 203 180 160 177 183 183 181 186 180 180 178 178 176 167 166 165 165 158 158
95 96 95 92 96 96 102 103 104 104 136 113 111 110 109 112 114 105 91 91 78 69 67 81 134 153 155 153 166 180 179 187 192 187 191 191 187 185 186 182 181 168 161 159
87 93 93 92 101 104 113 157 159 137 100 96 110 118 107 110 116 114 109 106 83 34 18 70 86 139 137 143 154 165 169 178 173 178 176 174 182 175 177 170 163 165 163 163
90 92 87 103 124 103 109 111 115 105 118 137 145 143 140 147 148 133 137 135 128 99 141 200 181 163 126 134 148 155 160 160 167 167 164 162 161 162 164 163 164 165 165 163
69 76 77 80 87 92 87 80 77 79 93 117 133 146 151 144 147 141 144 147 154 157 153 141 130 133 137 137 142 147 152 164 158 157 159 164 164 162 166 172 170 165 164 161
63 65 63 60 52 49 54 61 66 60 69 75 88 113 155 178 170 172 184 174 157 141 139 146 151 153 159 168 179 169 153 151 158 154 155 160 163 164 164 163 163 164 156 158
Wind_Speed_850mb
50 42 49 42 45 48 49 46 38 33 34 29 20 18 18 25 33 41 54 55 53 52 49 47 43 39 34 31 31 28 25 23 22 24 23 22 22 23 27 26 30 32 36 36
43 52 41 44 49 47 50 50 44 37 34 22 26 14 18 29 39 47 58 64 57 52 50 50 49 46 40 35 34 31 28 25 24 27 26 25 24 25 27 27 28 28 28 29
43 41 42 44 52 51 47 50 44 44 38 30 21 24 29 32 40 48 53 62 62 60 55 52 52 49 46 40 36 34 31 28 26 28 30 28 26 26 25 28 29 30 30 28
27 32 38 38 44 50 47 41 43 41 35 35 31 35 39 31 41 41 48 55 59 57 54 54 53 50 46 43 41 37 33 31 28 28 32 32 30 28 30 29 28 27 23 23
23 33 15 24 25 44 46 47 39 42 40 41 32 27 28 33 39 40 49 54 62 63 59 55 56 55 52 48 45 42 38 35 32 30 34 36 35 32 34 34 31 27 20 19
24 36 52 23 29 32 34 35 39 44 38 37 31 21 26 45 44 40 37 44 52 58 61 59 58 58 57 54 50 48 43 39 36 33 35 38 38 38 39 34 30 24 22 23
26 29 23 9 37 30 35 15 31 47 49 45 28 41 21 20 44 47 40 42 46 56 67 74 68 64 63 59 57 50 45 43 40 37 37 37 38 40 42 39 29 30 26 28
28 26 25 19 25 36 18 15 17 31 37 40 52 48 24 18 31 47 41 38 47 54 60 64 72 70 65 65 58 52 49 47 45 41 38 39 41 42 42 40 36 37 34 33
24 21 14 30 19 36 21 27 23 20 29 35 36 36 27 26 30 35 30 31 40 49 52 57 69 73 70 67 61 57 54 52 50 46 43 41 45 47 45 47 37 37 37 33
12 22 8 17 20 17 31 26 17 20 20 25 28 24 28 30 32 39 33 28 31 43 53 57 65 80 85 65 63 63 59 55 53 53 50 46 44 46 41 44 41 40 39 37
23 27 23 31 41 25 26 25 18 19 23 24 23 22 24 27 29 27 29 28 32 40 50 57 59 66 69 70 68 68 67 61 58 54 59 54 53 49 49 49 47 43 41 39
23 19 35 35 32 50 31 31 29 24 23 24 23 23 22 19 19 21 22 26 32 37 43 50 52 58 64 73 75 81 80 70 65 60 59 54 53 50 57 49 54 51 47 40
26 2 16 28 31 35 47 40 30 32 30 29 23 20 20 17 17 20 24 26 33 38 39 41 48 53 61 72 74 81 88 78 70 67 61 62 58 57 52 63 55 55 54 52
19 15 33 41 30 30 40 49 41 38 32 28 26 24 24 26 26 24 27 27 28 33 36 42 46 50 56 65 75 81 90 83 80 76 68 64 63 59 55 53 65 67 64 61
38 35 34 45 43 34 33 32 36 37 35 33 26 26 28 31 32 31 24 23 27 30 30 39 44 46 51 60 70 75 80 80 86 71 75 69 63 60 58 55 52 50 57 64
47 46 43 47 52 45 38 40 45 39 37 29 26 31 33 34 32 32 25 17 19 27 32 34 38 39 46 55 61 63 73 80 76 75 62 66 63 61 59 57 53 52 48 43
39 47 48 54 53 50 45 43 49 49 45 39 33 28 25 27 33 30 25 22 24 22 23 28 33 37 41 51 57 59 60 66 87 79 70 65 61 60 55 55 54 51 48 49
40 44 44 43 38 49 52 48 42 39 48 42 37 31 27 25 22 21 23 22 21 24 30 25 18 31 42 46 50 49 50 55 55 72 72 66 63 59 55 52 50 49 56 64
32 36 38 40 42 42 42 44 43 49 47 41 34 26 22 20 19 22 27 25 26 23 27 34 32 22 25 37 47 45 45 49 54 56 73 70 66 62 59 55 50 50 56 52
22 28 26 26 25 28 35 33 40 45 41 37 32 27 22 19 18 16 16 19 26 32 36 38 39 36 30 30 36 41 45 45 46 42 54 61 60 66 55 58 49 44 47 50
23 33 36 41 40 35 29 26 26 32 40 43 41 32 29 23 19 16 9 4 9 15 22 32 35 35 35 36 42 39 43 44 46 44 52 55 54 57 55 54 52 54 52 52
35 46 53 59 59 57 49 48 35 9 29 45 49 45 40 34 27 22 16 14 14 13 9 5 14 19 23 35 31 38 44 44 42 48 52 61 68 67 60 61 63 61 59 69
48 57 58 55 60 62 63 55 19 6 14 38 40 32 29 26 24 19 17 20 21 23 19 12 12 16 26 18 24 28 36 41 47 49 58 68 70 74 74 82 75 81 82 80
55 58 55 45 52 45 40 24 14 17 16 27 26 26 18 15 19 20 15 12 9 6 5 4 6 7 15 17 19 23 27 37 42 48 54 57 69 69 74 87 97 94 89 78
51 51 45 37 33 27 20 15 17 12 15 19 20 15 14 21 18 21 15 11 8 3 0 6 9 8 10 16 21 23 29 37 43 48 54 57 62 68 88 90 86 82 74 71
46 42 41 39 33 24 20 18 20 16 11 7 10 13 15 20 20 14 12 11 8 5 4 7 8 10 13 18 24 28 32 41 49 47 54 70 84 86 82 79 79 81 75 82
46 43 42 40 37 36 33 28 22 19 15 12 9 7 8 15 12 10 11 14 16 15 15 14 13 11 9 17 22 31 32 38 41 48 50 58 62 67 71 76 77 79 79 73
Wind_Direction_850mb
224 215 201 208 214 214 218 219 231 232 235 236 239 210 211 190 181 178 179 183 185 184 183 182 181 184 184 180 175 168 159 155 158 156 145 142 133 128 121 118 114 111 111 109
213 221 210 215 218 212 217 222 228 238 250 217 240 242 187 185 183 187 186 190 188 185 184 183 182 182 183 183 180 173 167 162 161 164 158 156 151 143 136 128 125 125 121 117
219 215 221 226 216 214 219 224 226 229 232 243 224 230 206 193 193 192 194 191 190 188 185 186 185 183 183 182 181 180 174 171 168 169 168 164 161 157 149 145 136 131 127 127
201 198 209 242 215 220 222 224 224 237 233 231 225 227 226 200 196 195 194 197 194 191 187 186 184 185 185 182 182 182 181 179 175 172 175 173 170 169 168 161 156 152 143 140
204 201 215 191 205 209 214 230 219 221 222 232 226 237 237 217 206 197 197 197 194 194 188 184 184 184 184 186 185 183 186 185 181 177 177 180 180 181 180 178 176 176 173 175
207 193 217 175 170 198 210 226 210 217 219 226 220 216 230 198 204 202 196 195 192 188 186 185 186 185 185 189 189 188 187 186 184 181 180 182 185 189 193 191 187 184 189 189
187 213 223 276 171 169 191 199 192 211 218 222 212 224 242 199 200 200 193 192 192 184 187 193 186 186 188 191 194 191 186 184 184 184 181 181 183 189 192 190 192 187 191 189
199 203 210 160 150 192 187 108 182 203 213 211 215 223 211 203 198 192 195 200 195 191 188 188 188 188 190 196 194 191 188 185 185 185 179 181 182 184 187 188 189 187 183 178
203 203 96 168 192 201 189 213 214 211 195 200 213 217 200 196 183 188 190 196 195 197 192 189 190 194 195 196 190 190 190 188 186 187 183 185 182 182 181 183 183 181 181 180
247 215 194 219 237 219 214 224 214 203 195 202 206 208 206 201 197 200 195 198 198 196 197 195 194 197 207 191 189 189 192 192 189 187 188 188 187 189 185 188 185 185 185 185
252 262 264 229 249 245 236 229 215 204 198 195 201 205 192 185 192 196 198 211 213 204 201 200 199 202 198 195 190 191 192 193 193 192 193 194 192 193 193 198 193 190 191 190
234 244 242 235 235 244 233 231 223 215 197 197 192 190 190 183 185 191 203 211 213 210 205 200 202 203 199 196 195 193 194 195 197 195 197 197 197 199 201 199 204 197 197 194
266 329 297 267 273 263 251 232 221 211 204 191 189 199 206 203 207 207 206 211 213 216 210 204 200 200 200 196 199 200 203 199 200 198 202 199 201 201 204 206 209 209 212 211
236 293 273 258 252 248 236 235 238 223 212 204 213 217 220 223 212 211 214 212 216 219 216 211 205 203 200 199 199 205 208 207 202 204 204 205 206 206 205 206 211 213 215 218
245 248 262 275 279 270 254 237 212 208 212 216 215 219 220 218 212 203 198 202 212 214 217 214 211 208 202 202 203 205 208 207 208 207 206 209 207 208 208 208 209 211 219 223
247 247 244 257 266 256 243 227 217 219 219 212 214 218 218 219 212 201 203 209 204 209 210 214 214 212 204 205 206 208 210 209 212 209 211 210 210 211 210 210 209 209 209 218
248 243 245 250 251 248 237 226 223 229 229 212 198 193 197 208 204 204 212 215 211 213 210 217 219 211 205 205 205 207 210 212 210 210 211 211 210 214 213 212 210 210 213 213
246 241 245 251 252 241 239 234 229 225 208 186 183 189 190 202 200 202 208 216 221 219 220 216 222 204 201 200 199 202 206 207 213 212 212 211 211 212 213 210 210 206 202 212
229 233 239 241 244 238 234 225 216 202 184 170 169 176 184 192 211 219 231 231 227 224 235 224 217 217 206 210 210 204 204 202 204 205 208 208 206 206 213 213 203 195 201 200
216 214 211 207 204 209 200 192 181 177 158 151 145 145 147 162 190 205 214 212 216 216 239 228 211 211 213 213 215 202 205 201 203 199 199 205 201 197 203 196 186 179 169 164
125 138 137 123 121 124 135 150 168 149 139 136 132 134 127 127 124 110 101 172 198 205 228 224 208 214 208 217 196 192 196 198 197 194 190 187 187 179 181 178 171 169 163 156
114 112 102 102 99 98 105 104 94 129 136 129 120 114 109 103 99 98 95 92 87 112 120 134 202 203 180 160 177 183 183 181 186 180 180 178 178 176 167 166 165 165 158 158
95 96 95 92 96 96 102 103 104 104 136 113 111 110 109 112 114 105 91 91 78 69 67 81 134 153 155 153 166 180 179 187 192 187 191 191 187 185 186 182 181 168 161 159
87 93 93 92 101 104 113 157 159 137 100 96 110 118 107 110 116 114 109 106 83 34 18 70 86 139 137 143 154 165 169 178 173 178 176 174 182 175 177 170 163 165 163 163
90 92 87 103 124 103 109 111 115 105 118 137 145 143 140 147 148 133 137 135 128 99 141 200 181 163 126 134 148 155 160 160 167 167 164 162 161 162 164 163 164 165 165 163
69 76 77 80 87 92 87 80 77 79 93 117 133 146 151 144 147 141 144 147 154 157 153 141 130 133 137 137 142 147 152 164 158 157 159 164 164 162 166 172 170 165 164 161
63 65 63 60 52 49 54 61 66 60 69 75 88 113 155 178 170 172 184 174 157 141 139 146 151 153 159 168 179 169 153 151 158 154 155 160 163 164 164 163 163 164 156 158